Location: Unspecified
(0.0000°N, 0.0000°E)
Time: 06:08:41
(UTC+00:00)

OTV 5 (USA 277) - Visible Passes

Search period start: 16 September 2019 00:00
Search period end: 26 September 2019 00:00
Orbit: 295 x 339 km, 54.5° (Epoch: 08 September)

Date Brightness Start Highest point End Pass type
(mag) Time Alt. Az. Time Alt. Az. Time Alt. Az.
20 Sep ? 18:21:39 10° NNE 18:23:16 15° ENE 18:24:42 11° E visible
21 Sep ? 18:35:12 10° NW 18:37:44 84° SW 18:40:16 10° SSE visible
22 Sep ? 18:50:46 10° W 18:52:12 14° WSW 18:53:40 10° SSW visible
24 Sep ? 04:51:28 10° SSE 04:52:51 13° ESE 04:54:13 10° E visible
25 Sep ? 05:04:31 10° SSW 05:07:20 59° ESE 05:10:07 10° NE visible
